www.pogodaiklimat.ru

Погода и климат >> Архив погоды >> Нигер >> Зиндер


ПОГОДА в Зиндере

  • Прогноз погоды в Зиндере
  • Монитор погоды в Зиндере

АРХИВ ПОГОДЫ в Зиндере

Время (UTC), дата Ветер
(напр.,м/с)
 
Видим.   Явления Облачность Т
(С)
Тd
(С)
f
(%)
Тe
(С)
Тes
(С)
Комфортность P
(гПа)
Po
(гПа)
Тmin
(С)
Tmax
(С)
R
(мм)
R24
(мм)
S
(см)
12 11.02 В 12 1000 м пыль {туман} 9/0
[Cs]
+26.7 -4.0 13 +24 +24 комфорт 1013.9 962.9
15 11.02 В 10 3500 м пыль 9/0
[Cs]
+29.0 -3.9 11 +26 +26 жарко 1011.1 960.3
18 11.02 В 6 4500 м пыль 9/0
[Cs]
+26.0 -2.5 15 +24 +24 комфорт 1012.6 961.4 +29.0
21 11.02 СВ 8 4500 м пыль 9/0
[Cs]
+23.0 -3.3 17 +21 +21 комфорт 1014.5 963.4
03 12.02 СВ 8 2000 м пыль 9/0
[Cs]
+19.4 -4.2 20 +19 +19 1012.6 961.9
06 12.02 СВ 10 600 м пыль {туман} 9/0
[Cs]
+17.4 -5.2 21 +16 +16 1013.9 962.7 +17.4
09 12.02 СВ 10 600 м пыль 9/0
[Cs]
+21.5 -4.7 17 +20 +21 1015.7 964.5
12 12.02 В 12 1600 м пыль 9/0
[Cs]
+27.0 -3.2 14 +24 +24 комфорт 1013.6 962.9
15 12.02 В 8 1800 м пыль 9/0
[Cs]
+29.0 -1.5 14 +26 +27 жарко 1011.8 961.1
18 12.02 СВ 6 2000 м пыль 9/0
[Cs]
+26.5 +0.8 19 +25 +25 комфорт 1013.2 962.1 +29.3
21 12.02 СВ 10 2500 м пыль 9/0
[Cs]
+22.5 -0.2 22 +22 +22 комфорт 1015.2 964.0
03 13.02 СВ 6 8000 м пыль 9/0
[Cs]
+18.0 -1.7 26 +17 +17 1013.7 962.8
06 13.02 В 6 10 км 9/0
[Cs]
+17.0 -2.5 26 +16 +16 1015.1 963.9 +17.0
09 13.02 В 14 10 км 9/0
[Cs]
+24.0 -5.1 14 +22 +22 комфорт 1017.1 966.0
12 13.02 В 14 10 км 9/0
[Cs]
+29.0 -6.9 9 +25 +25 комфорт 1015.6 964.7
15 13.02 СВ 14 10 км 9/0
[Cs]
+30.0 -4.1 11 +27 +27 жарко 1013.2 962.4
18 13.02 СВ 10 10 км 9/0
[Cs]
+26.5 -5.2 12 +24 +24 комфорт 1014.5 963.3 +30.4
21 13.02 СВ 14 10 км 9/0
[Cs]
+23.0 -5.8 14 +21 +21 комфорт 1016.7 965.7
03 14.02 В 14 6000 м пыль 9/0
[Cs]
+18.5 -5.0 20 +17 +17 1016.3 965.3
06 14.02 В 16 2500 м пыльный позёмок 9/0
[Cs]
+16.5 -4.1 24 +14 +14 1018.4 966.9 +16.5
09 14.02 СВ 18 3000 м пыльный позёмок 9/0
[Cs]
+18.7 -3.2 22 +17 +17 1020.9 969.2
12 14.02 СВ 16 3000 м пыльный позёмок 9/0
[Cs]
+24.0 -8.0 11 +22 +22 комфорт 1018.7 967.3
15 14.02 СВ 12 3000 м пыль 9/0
[Cs]
+26.0 -8.0 10 +23 +23 комфорт 1015.9 964.7
18 14.02 СВ 14 2500 м пыльный позёмок 9/0
[Cs]
+23.0 -5.8 14 +21 +21 комфорт 1016.2 964.6 +26.0
21 14.02 СВ 12 1800 м пыль 9/0
[Cs]
+19.5 -5.0 19 +18 +18 1018.6 966.7
03 15.02 СВ 16 1500 м пыльный позёмок 9/0 <50 м
[Cs]
+16.4 -3.0 26 +14 +14 1018.2 966.7
06 15.02 СВ 12 1700 м пыль 9/0
[Cs]
+15.5 -5.9 22 +13 +13 1020.1 968.1 +15.5
09 15.02 СВ 16 2000 м пыльный позёмок 9/0
[Cs]
+18.7 -4.1 21 +17 +17 1021.7 969.7
12 15.02 В 14 2500 м пыльный позёмок 9/0
[Cs]
+23.5 -2.1 18 +22 +22 комфорт 1019.3 967.6
15 15.02 В 12 3000 м пыль 9/0
[Cs]
+26.5 -2.7 14 +24 +24 комфорт 1016.2 964.8
18 15.02 СВ 10 3000 м пыль 9/0
[Cs]
+23.0 -2.9 18 +22 +22 комфорт 1016.8 965.0 +26.5
21 15.02 В 12 3000 м пыль 9/0
[Cs]
+20.0 -4.7 18 +19 +19 1019.0 967.2
06 16.02 СВ 10 10 км 9/0
[Cs]
+13.8 -4.5 28 +11 +11 1018.0 966.0 +13.7
09 16.02 В 12 500 м пыль 9/0
[Cs]
+18.0 -3.9 22 +17 +17 1019.8 967.9
12 16.02 В 12 600 м пыль {туман} 9/0
[Cs]
+24.0 -3.1 16 +22 +22 комфорт 1017.6 966.0
15 16.02 ЮВ 12 700 м пыль {туман} 9/0
[Cs]
+26.5 -3.6 14 +24 +24 комфорт 1014.5 963.1
18 16.02 В 6 700 м пыль {туман} 9/0
[Cs]
+24.0 -0.9 19 +23 +23 комфорт 1015.4 963.6 +27.0
06 17.02 В 10 500 м пыль {туман} 9/0
[Cs]
+15.0 -3.7 27 +13 +13 1016.8 965.0 +15.0
09 17.02 В 12 600 м пыль {туман} 9/0
[Cs]
+20.0 -1.6 23 +19 +19 1018.1 966.5
12 17.02 В 10 1800 м пыль 9/0
[Cs]
+26.5 -3.7 13 +24 +25 комфорт 1016.5 965.3
15 17.02 В 10 2500 м пыль 9/0
[Cs]
+28.3 -1.5 14 +26 +26 жарко 1012.8 961.8
18 17.02 В 8 2800 м пыль 9/0
[Cs]
+25.5 -1.5 17 +24 +24 комфорт 1013.4 962.0 +29.0
06 18.02 В 6 6000 м пыль 9/0
[Cs]
+16.5 -1.5 29 +16 +16 1014.8 963.4 +15.3
09 18.02 В 12 8000 м пыль 9/0
[Cs]
+23.0 -1.1 20 +22 +22 комфорт 1016.7 965.4

 

Местоположение метеостанции Зиндер (Нигер): широта 13.78 долгота 8.98 высота над уровнем моря 453 м.

В архиве по умолчанию представлена погода в Зиндере за последнюю неделю. Архивные данные за месяц целиком и за предыдущие месяцы, начиная с января 2011 года, Вы можете получить, выбрав интересующий диапазон дат из раскрывающегося списка и нажав кнопку "Ввод!".


*Определитесь, кто Вы:
робот инопланетянин человек

Внимание! Время в таблицах - всемирное. Для получения местного времени необходимо прибавить поправку, которая равна 1 ч.

Смотрите также архив погоды в соседних городах и на ближайших метеорологических станциях:

Погода в Магарьа (Нигер) (89 км)
Погода в Гуре (Нигер) (144 км)
Погода в Кано (Нигерия) (199 км)
Погода в Маради (Нигер) (208 км)
Погода в Майне-Сороа (Нигер) (330 км)
Погода в Агадесе (Нигер) (371 км)
Погода в Вирнин-Конни (Нигер) (403 км)
Погода в Диффе (Нигер) (413 км)
Погода в Тахве (Нигер) (421 км)
Погода в Нгигми (Нигер) (450 км)

Пояснения к столбцам:

Ветер - указаны скорость ветра в м/с - средняя за 10 мин, порывы в срок и между сроками (в фигурных скобках) и направление, откуда дует ветер: С - северный, СВ - северо-восточный, В - восточный, ЮВ - юго-восточный, Ю - южный, ЮЗ - юго-западный, З - западный, СЗ - северо-западный.
Видимость - горизонтальная дальность видимости в метрах или километрах. При видимости от 1 до 10 км при отсутствии осадков обычно наблюдается дымка, при ухудшении видимости до 1 км и менее - туман. В сухую погоду видимость может ухудшаться дымом, пылью или мглою.
Явления - указаны атмосферные явления, наблюдавшиеся в срок или в последний час перед сроком; фигурными скобками обозначены явления, наблюдавшиеся между сроками (за 1-3 часа до срока); квадратными скобками обозначены град или гололедные отложения с указанием их диаметра в мм.
Облачность - указаны через наклонную черту общая и нижняя облачность в баллах и высота нижней границы облаков в метрах; квадратными скобками обозначены формы облаков: Ci - перистые, Cs - перисто-слоистые, Cc - перисто-кучевые, Ac - высококучевые, As - высокослоистые, Sc - слоисто-кучевые, Ns - слоисто-дождевые, Cu - кучевые, Cb - кучево-дождевые. Подробнее классификацию облаков см. в Атласе облаков (PDF).
T - Температура воздуха - температура, измеренная на высоте 2 м над землей.
Td - Температура точки росы - температура, при понижении до которой содержащийся в воздухе водяной пар достигнет насыщения.
f - Относительная влажность воздуха - влажноcть воздуха, измеренная на высоте 2 м над землей.
Te - Эффективная температура - температура, которую ощущает одетый по сезону человек в тени. Характеристика душности погоды. При расчете учитывается влияние влажности воздуха и скорости ветра на теплоощущения человека.
Tes - Эффективная температура на солнце - температура, которую ощущает человек, с поправкой на солнечный нагрев. Характеристика знойности погоды. Зависит от высоты солнца над горизонтом, облачности и скорости ветра. Ночью, в пасмурную погоду, а также при ветре 12 м/с и более поправка равна нулю.
P - Атмосферное давление - приведенное к уровню моря атмосферное давление.
Po - Атмосферное давление - измеренное на уровне метеостанции атмосферное давление.
Tmin - Минимальная температура - минимум температуры воздуха на высоте 2 м над землей.
Tmax - Максимальная температура - максимум температуры воздуха на высоте 2 м над землей.
R - Количество осадков - Количество выпавших осадков за период времени, мм. При наведении курсора мыши на число - период времени, за который выпало указанное количество осадков.
R24 - Количество осадков - Количество выпавших осадков за 24 часа, мм.
S - Снежный покров - Высота снежного покрова, см. При наведении курсора мыши на число - состояние снежного покрова и степень покрытия местности в баллах.